STARLINK-30147 (57511 NORAD) Tracking and Keplerian Element Data

This shows tracking and keplerian element data for the satellite.

Feedback or suggestion? Click here.




ElementValue
Catalog57511
NameSTARLINK-30147
Epoch Orbit4219
Epoch Day125.19342096
Epoch Year2024
RAAN82.7696
Inclination43.0034
Eccentricity0.0001366
Argument of Perigee279.1478
Mean Anonmoly80.9209
Mean Motion15.0252596
Decay Rate-2.057E-05
L11 57511U 23113S 24125.19342096 -.00002057 00000+0 -13726-3 0 9994
L22 57511 43.0034 82.7696 0001366 279.1478 80.9209 15.02525960 42196



Live tracking and technical data element details for STARLINK-30147 (NORAD 57511). STARLINK-30147 can be tracked NOW for your location showing map with azimuth and elevation plus other details from your city location.







IsCatalogInMostPopularTable: catalog: 57511, numindb: 31
Update: records affected: 1



GetName: 57511 STARLINK-30147

Hit Count: updated at: Thu, 30 May 2024 16:59:03 GMT